Regional Weather Roundup
Issued by NWS

Home | Current Version | Previous Version | Text Only | Print | Product List | Glossary On
Versions: 1 2 3 4 5 6 7 8 9 10 11 12 13 14 15 16 17 18 19 20 21 22 23 24 25 26 27 28 29 30 31 32 33 34 35 36 37 38 39 40 41 42 43 44 45 46 47 48 49 50
000
ASUS45 KABQ 251601
RWRNM
NEW MEXICO REGIONAL WEATHER ROUNDUP
NATIONAL WEATHER SERVICE ALBUQUERQUE NM
1000 AM MDT THU AUG 25 2016

NOTE: "FAIR" MEANS FEW OR NO CLOUDS BELOW 12,000 FEET AGL WITH NO
       SIGNIFICANT WEATHER OR OBSTRUCTIONS TO VISION.

      THIS PRODUCT IS RELEASED AS TWO VERSIONS.  ONE VERSION NEAR
      THE TOP OF THE HOUR CONTAINING PRELIMINARY DATA FROM ALBUQUERQUE
      AND OTHER STATIONS.  A FINAL VERSION WITH ADDITIONAL DATA IS
      ISSUED ABOUT 10 MINUTES AFTER THE HOUR.

NMZ501-503-504-510>518-251700-
NORTHWEST PLATEAU/NORTHCENTRAL MOUNTAINS

CITY           SKY/WX    TMP DP  RH WIND       PRES   REMARKS
FARMINGTON     FAIR      67  45  45 E14       30.24F
LOS ALAMOS     FAIR      58  47  65 CALM      30.38S
SANTA FE       FAIR      65  48  54 NE6       30.32S
TAOS           FAIR      59  45  58 CALM      30.38S
ANGEL FIRE     CLOUDY    47  46  95 CALM      30.45S

$$
NMZ402-403-502-505>509-251700-
WESTCENTRAL MOUNTAINS/SOUTHWEST MOUNTAINS

CITY           SKY/WX    TMP DP  RH WIND       PRES   REMARKS
GALLUP         FAIR      65  47  52 VRB5      30.32S
GRANTS         FAIR      65  44  45 SE8       30.34S
SILVER CITY    FAIR      74  46  36 CALM      30.25R

$$
NMZ407-409-411-412-251700-
SOUTHERN DESERTS

CITY           SKY/WX    TMP DP  RH WIND       PRES   REMARKS
DEMING         FAIR      79  53  40 E12       30.18S
LAS CRUCES     FAIR      76  53  44 NE6       30.20S
HOLLOMAN AFB   FAIR      69  57  65 W5        30.18R
ALAMOGORDO     FAIR      72  54  53 CALM      30.20R
T OR C         FAIR      73  50  44 NE6       30.22S

$$
NMZ519>523-251700-
CENTRAL VALLEYS/CENTRAL HIGHLANDS

CITY           SKY/WX    TMP DP  RH WIND       PRES   REMARKS
ALBUQUERQUE    PTSUNNY   67  49  52 N5        30.27S
DOUBLE EAGLE   MOSUNNY   66  48  52 CALM      30.30S
MORIARTY ARPT  FAIR      62  49  63 CALM      30.34S
CLINES CORNERS FAIR      61  48  62 S3        30.36F
BELEN          FAIR      67  47  47 W5        30.27R
SOCORRO        FAIR      72  48  43 N7        30.24S

$$
NMZ524>526-539-540-251700-
SOUTHCENTRAL MOUNTAINS

CITY           SKY/WX    TMP DP  RH WIND       PRES   REMARKS
RUIDOSO        NOT AVBL

$$
NMZ527>531-251700-
NORTHEAST HIGHLANDS/NORTHEAST PLAINS

CITY           SKY/WX    TMP DP  RH WIND       PRES   REMARKS
LAS VEGAS      FAIR      61  48  62 CALM      30.36R
RATON          FAIR      62  46  55 CALM      30.31S
CLAYTON        FAIR      67  54  63 N7        30.27S

$$
NMZ532>537-251700-
EASTCENTRAL PLAINS

CITY           SKY/WX    TMP DP  RH WIND       PRES   REMARKS
TUCUMCARI      FAIR      68  58  70 E7        30.23R
CANNON AFB     FAIR      69  59  70 N6        30.23R
CLOVIS AIRPORT CLOUDY    68  57  68 NE9       30.24R

$$
NMZ028-029-538-251700-
SOUTHEAST PLAINS

CITY           SKY/WX    TMP DP  RH WIND       PRES   REMARKS
ROSWELL        FAIR      73  59  61 N10       30.19R
ARTESIA        FAIR      70  68  94 N9        30.19S
CARLSBAD       PTSUNNY   71  64  78 NW16      30.16R
HOBBS          CLOUDY    68  68 100 S6        30.19R


$$




USA.gov is the U.S. government's official web portal to all federal, state and local government web resources and services.